Regional Weather Roundup
Issued by NWS

Home | Current Version | Previous Version | Text Only | Print | Product List | Glossary On
Versions: 1 2 3 4 5 6 7 8 9 10 11 12 13 14 15 16 17 18 19 20 21 22 23 24 25 26 27 28 29 30 31 32 33 34 35 36 37 38 39 40 41 42 43 44 45 46 47 48 49 50
000
ASUS45 KBOU 260807
RWRCO

WEATHER ROUNDUP FOR COLORADO
NATIONAL WEATHER SERVICE DENVER/BOULDER CO
200 AM MDT SUN APR 26 2015

NOTE: "FAIR" INDICATES FEW OR NO CLOUDS BELOW 12000 FEET WITH NO
SIGNIFICANT WEATHER AND/OR OBSTRUCTIONS TO VISIBILITY.

COZ001>005-013-030-031-260900-
...NORTHWEST COLORADO...

CITY           SKY/WX    TMP DP  RH WIND       PRES   REMARKS
CRAIG          CLOUDY    43  36  76 E9        29.76S
HAYDEN         CLOUDY    39  34  81 E13       29.78S
MEEKER         CLOUDY    41  37  86 NE5       29.75F
MOUNT WERNER   NOT AVBL
STEAMBOAT SPGS CLOUDY    39  35  84 NE12      29.78F
WALDEN         CLOUDY    34  32  93 SW5       29.84S WCI  30
$$

COZ006>008-011-260900-
...WEST CENTRAL VALLEYS...

CITY           SKY/WX    TMP DP  RH WIND       PRES   REMARKS
GRAND JUNCTION MOCLDY    45  45 100 NW6       29.73S
MONTROSE       MOCLDY    43  40  89 S5        29.77F
EAGLE          CLOUDY    39  37  93 SW3       29.83F
RIFLE          CLOUDY    44  41  89 S3        29.75F
DELTA          CLOUDY    46  42  85 MISG      29.75F
NUCLA          CLOUDY    43  37  81 CALM      29.80F
$$

COZ017>023-064>068-260900-
...SOUTHWEST COLORADO...

CITY           SKY/WX    TMP DP  RH WIND       PRES   REMARKS
DURANGO        LGT RAIN  40  36  86 MISG      29.83R
CORTEZ         LGT RAIN  41  40  96 S15       29.79S
PAGOSA SPRINGS CLOUDY    38  37  92 CALM      29.84F
TELLURIDE      LGT SNOW  33  33  98 CALM      29.83F
WOLF CREEK PAS NOT AVBL
$$

COZ009-010-012-014-032>034-037-058>063-260900-
...CENTRAL COLORADO...

CITY           SKY/WX    TMP DP  RH WIND       PRES   REMARKS
ASPEN          CLOUDY    36  34  92 N3        29.81S
BUENA VISTA    CLOUDY    35  32  92 W3        29.83F
COPPER MTN     PTCLDY    32  23  69 SE15      29.91F WCI  22
BERTHOUD PASS  HAZE      23  16  74 MISG      29.94F VSB<1/4
COTTONWOOD PAS CLOUDY    37  30  75 S5        29.87F
GUNNISON       MOCLDY    37  30  75 CALM      29.83F
KREMMLING      CLOUDY    36  32  87 CALM      29.83F
LEADVILLE      CLOUDY    28  28 100 N3        29.84F FOG
MONARCH PASS   CLOUDY    28  19  69 MISG      30.04F
SALIDA         CLOUDY    42  31  64 N7        29.88S
SUNLIGHT       CLOUDY    32  32 100 CALM      29.89F
WILKERSON PASS MOCLDY    30  27  86 S5        29.95S WCI  25
$$

COZ069>075-260900-
...SAN LUIS VALLEY/SANGRE DE CRISTO MOUNTAINS...

CITY           SKY/WX    TMP DP  RH WIND       PRES   REMARKS
ALAMOSA        MOCLDY    36  26  67 S5        29.82F
LA VETA PASS   PTCLDY    34  27  75 SW6       29.88F WCI  29
SAGUACHE       CLOUDY    39  28  65 NE6       29.84F
$$

COZ035-036-038>040-260900-
...NORTHERN COLORADO FRONT RANGE...

CITY           SKY/WX    TMP DP  RH WIND       PRES   REMARKS
DENVER INTL AP CLOUDY    46  44  93 NE6       29.78F
DMNS CITY PARK   N/A     48  41  77 NW6       29.78S
AURORA         TSTM      45  45  99 N6        29.79F
FRONT RANGE AP RAIN      48  46  93 E14       29.78F
ERIE MUNI ARPT RAIN      48  44  85 N6        29.78F
BOULDER MUN AP CLOUDY    46  43  87 CALM      29.79F
CENTENNIAL     MOCLDY    46  42  86 NW5       29.79F
BROOMFIELD     CLOUDY    46  43  87 N6        29.80S
FORT COLLINS   CLOUDY    48  43  81 NE8       29.81S
LONGMONT       CLOUDY    51  44  77 NE7       29.80F
$$

COZ041-046-047-076>085-087-088-260900-
...PIKES PEAK/PALMER DIVIDE AND SOUTHERN FOOTHILLS...

CITY           SKY/WX    TMP DP  RH WIND       PRES   REMARKS
COLO. SPRINGS  MOCLDY    49  38  65 E6        29.79S
A. F. ACADEMY  CLOUDY    45  42  88 N5        29.79F
ELLICOTT       PTCLDY   N/A N/A N/A SE16      29.75F
FALCON         CLOUDY    46  38  74 E8        29.81F
FORT CARSON    PTCLDY    49  38  67 N6        29.76S
LIMON          CLOUDY    50  47  89 E15       29.78F
MONUMENT HILL  DRIZZLE   39  37  93 NW5       29.81S
TRINIDAD       PTCLDY    46  26  45 NE3       29.72S
$$

COZ042>045-048>051-090-091-260900-
...NORTHEAST COLORADO...

CITY           SKY/WX    TMP DP  RH WIND       PRES   REMARKS
GREELEY ARPT   CLOUDY    46  39  76 NE7       29.81S
AKRON          CLOUDY    45  44  97 E18G25    29.81S
BURLINGTON     FOG       48  46  93 E22G30    29.80R VSB 1/2
WRAY           CLOUDY   N/A N/A N/A NE18G24   29.82F FOG
STERLING       HVY RAIN  46  46 100 NE7       29.82S
HOLYOKE        LGT RAIN  48  45  87 E17       29.85R
FORT MORGAN    CLOUDY    45  43  92 NE16      29.81S
$$

COZ086-089-092>099-260900-
...SOUTHEAST COLORADO...

CITY           SKY/WX    TMP DP  RH WIND       PRES   REMARKS
PUEBLO         MOCLDY    52  39  61 E12       29.69S
LA JUNTA       MOCLDY    55  46  71 SE13      29.70F
LAMAR          CLOUDY    54  50  86 E18G28    29.70R
SPRINGFIELD      N/A     52  50  93 E23G29    29.70F
$$


USA.gov is the U.S. government's official web portal to all federal, state and local government web resources and services.